Regional Weather Roundup
Issued by NWS Kansas City/Pleasant Hill, MO

Home | Current Version | Previous Version | Text Only | Print | Product List | Glossary On
Versions: 1 2 3 4 5 6 7 8 9 10 11 12 13 14 15 16 17 18 19 20 21 22 23 24 25 26 27 28 29 30 31 32 33 34 35 36 37 38 39 40 41 42 43 44 45 46 47 48 49 50
000
ASUS43 KEAX 180811
RWREAX

WEATHER ROUNDUP FOR EASTERN KANSAS AND NORTHWEST MISSOURI
NATIONAL WEATHER SERVICE KANSAS CITY/PLEASANT HILL MO
200 AM CST THU DEC 18 2014

KSZ040-057-103>105-MOZ028-029-037-043-180900-
...KANSAS CITY METROPOLITAN AREA...

CITY           SKY/WX    TMP DP  RH WIND       PRES   REMARKS
K.C. INTL      LGT SNOW  28  26  92 E6        30.23F VSB 1   WCI  22
K.C. DOWNTOWN  LGT SNOW  29  27  92 NE7       30.24F FOG     WCI  22
LEES SUMMIT    LGT SNOW  28  26  92 NE7       30.23F FOG     WCI  21
OLATHE - IXD   LGT SNOW  28  26  92 E5        30.22F FOG     WCI  23
OLATHE - OJC   LGT SNOW  28  27  96 NE6       30.21S FOG     WCI  22
LAWRENCE       CLOUDY    28  26  92 E3        30.24S FOG

$$

MOZ001>008-011>017-020>025-030>033-038>040-044>046-053-054-180900-
...NORTHERN AND CENTRAL MISSOURI...

CITY           SKY/WX    TMP DP  RH WIND       PRES   REMARKS
ST. JOSEPH     CLOUDY    29  24  82 E5        30.25S WCI  24
MOSBY          SNOW      28  28 100 NE5       30.25F VSB 1/2 WCI  23
WARRENSBURG    LGT SNOW  30  28  93 NE3       30.24F
WHITEMAN AFB   LGT SNOW  29  28  93 E6        30.23F FOG     WCI  23
CLINTON        LGT SNOW  32  32 100 NE8       30.23F WCI  25
SEDALIA        FLURRIES  32  27  81 NE6       30.25F WCI  26
WARSAW         NOT AVBL
MARSHALL       CLOUDY    34  28  80 N5        30.27  WCI  30
CHILLICOTHE      N/A     30  22  72 E3        30.27F
MOBERLY        CLOUDY    28  21  74 NE6       30.28F WCI  22
KIRKSVILLE     CLOUDY    26  21  81 E6        30.27F WCI  19

$$

MOZ041-047>049-056>058-063>065-088>090-097-180900-
...EASTERN AND SOUTHERN MISSOURI...

CITY           SKY/WX    TMP DP  RH WIND       PRES   REMARKS
ST. LOUIS INTL CLOUDY    31  23  72 E7        30.28F WCI  24
SPIRIT OF STL  CLOUDY   N/A N/A N/A E5        30.27F
COLUMBIA       CLOUDY    31  26  82 NE5       30.26S WCI  26
JEFFERSON CITY CLOUDY    33  26  75 NE5       30.28R WCI  29
MEXICO         CLOUDY    30  27  86 E3        30.27S
HANNIBAL       CLOUDY    28  21  74 CALM      30.28F
ROLLA          LGT SNOW  31  28  89 E3        30.22S FOG
LEBANON        MIX PCPN  32  30  93 E3        30.21R
OSAGE BEACH    CLOUDY    30  28  93 NE5       30.24R WCI  25
SPRINGFIELD    CLOUDY    33  31  92 SE9       30.17F FOG     WCI  25
BRANSON        CLOUDY    32  32 100 SE7       30.19S WCI  26
JOPLIN         CLOUDY    34  33  96 NE3       30.19R FOG
WEST PLAINS    CLOUDY    33  31  92 SE5       30.21F WCI  29

$$

IAZ060-094-KSZ022-034>040-054-083-096-NEZ052-066-093-180900-
...KANSAS...SOUTHEAST NEBRASKA AND IOWA...

CITY           SKY/WX    TMP DP  RH WIND       PRES   REMARKS
TOPEKA         LGT SNOW  30  27  88 E6        30.22F FOG     WCI  24
MANHATTAN      LGT SNOW  27  26  96 NE6       30.20F FOG     WCI  20
EMPORIA        LGT SNOW  28  27  96 NE7       30.18F FOG     WCI  21
CHANUTE        FRZ RAIN  31  30  96 NE6       30.19F FOG     WCI  25
WICHITA        LGT SNOW  32  29  88 E6        30.13F FOG     WCI  26
OMAHA          CLOUDY    28  21  75 E5        30.26S WCI  23
LINCOLN        CLOUDY    27  19  72 E5        30.23F WCI  22
FALLS CITY     LGT SNOW  28  23  81 S5        30.24S WCI  23
LAMONI         CLOUDY    26  19  74 E6        30.25F WCI  19
DES MOINES     CLOUDY    23  17  78 E6        30.29S WCI  16

$$



USA.gov is the U.S. government's official web portal to all federal, state and local government web resources and services.